Location: Unspecified
(48.8656°N, 0.0000°E)
Time: 03:08:39
(UTC+00:00)

Vanguard 1 Rocket - Pass Details

Date: 22 June 2019
Orbit: 651 x 4225 km, 34.3° (Epoch: 21 July)

Event Time Altitude Azimuth Distance (km) Brightness Sun altitude
Rises 17:28:21 0° 235° (SW) 7,589 12.8 22.8°
Reaches altitude 10° 17:34:48 10° 228° (SW) 6,018 12.2 21.8°
Maximum altitude 17:48:35 33° 173° (S) 3,005 10.0 19.6°
Drops below altitude 10° 17:56:35 10° 113° (ESE) 3,469 9.8 18.3°
Sets 17:59:11 0° 103° (ESE) 4,108 10.1 17.9°
